,,,PA_Meas_PMT16A,,PR_Meas_QMR101_102,,RH_Meas_QMH101,,SR_Meas_QMS101,,TA_Meas_QMH101,,GenWind,,GenWind,
date,time,status,PA,status,PR,status,RH,status,SR,status,TA,status,DirAvg,status,SpdAvg,
2009-12-23, 00:00:05,VALID,1002.41,VALID,0,VALID,90.1897,VALID,0,VALID,23.7988,VALID,49,VALID,0,
2009-12-23, 00:01:05,VALID,1002.43,VALID,0,VALID,90.3728,VALID,0,VALID,23.7597,VALID,49,VALID,0,
2009-12-23, 00:02:05,VALID,1002.43,VALID,0,VALID,90.4949,VALID,0,VALID,23.7402,VALID,49,VALID,0,
2009-12-23, 00:03:05,VALID,1002.39,VALID,0,VALID,90.7314,VALID,0,VALID,23.7189,VALID,49,VALID,0,
2009-12-23, 00:04:05,VALID,1002.38,VALID,0,VALID,90.9146,VALID,0,VALID,23.6994,VALID,49,VALID,0,
2009-12-23, 00:05:05,VALID,1002.4,VALID,0,VALID,91.0748,VALID,0,VALID,23.6799,VALID,49,VALID,0.0128906,
2009-12-23, 00:06:05,VALID,1002.38,VALID,0,VALID,91.1434,VALID,0,VALID,23.6799,VALID,49,VALID,0.201953,
2009-12-23, 00:07:05,VALID,1002.37,VALID,0,VALID,91.1968,VALID,0,VALID,23.6604,VALID,49,VALID,0,
2009-12-23, 00:08:05,VALID,1002.35,VALID,0,VALID,91.3494,VALID,0,VALID,23.6604,VALID,31,VALID,0,
2009-12-23, 00:09:05,VALID,1002.36,VALID,0,VALID,91.3571,VALID,0,VALID,23.6604,VALID,31,VALID,0,
2009-12-23, 00:10:05,VALID,1002.33,VALID,0,VALID,91.3189,VALID,0,VALID,23.6409,VALID,31,VALID,0,
2009-12-23, 00:11:05,VALID,1002.31,VALID,0,VALID,91.3571,VALID,0,VALID,23.6409,VALID,31,VALID,0,
2009-12-23, 00:12:05,VALID,1002.31,VALID,0,VALID,91.3189,VALID,0,VALID,23.6409,VALID,31,VALID,0,
2009-12-23, 00:13:05,VALID,1002.26,VALID,0,VALID,91.3189,VALID,0,VALID,23.6409,VALID,31,VALID,0,
2009-12-23, 00:14:05,VALID,1002.26,VALID,0,VALID,91.3189,VALID,0,VALID,23.6409,VALID,31,VALID,0,
2009-12-23, 00:15:05,VALID,1002.27,VALID,0,VALID,91.4715,VALID,0,VALID,23.6409,VALID,31,VALID,0,
2009-12-23, 00:16:05,VALID,1002.22,VALID,0,VALID,91.3876,VALID,0,VALID,23.6409,VALID,31,VALID,0.280469,
2009-12-23, 00:17:05,VALID,1002.21,VALID,0,VALID,91.2045,VALID,0,VALID,23.7012,VALID,31,VALID,0.0128906,
2009-12-23, 00:18:05,VALID,1002.16,VALID,0,VALID,91.1587,VALID,0,VALID,23.6994,VALID,31,VALID,0,
2009-12-23, 00:19:05,VALID,1002.17,VALID,0,VALID,91.09,VALID,0,VALID,23.6994,VALID,31,VALID,0.130859,
2009-12-23, 00:20:05,VALID,1002.16,VALID,0,VALID,91.0443,VALID,0,VALID,23.6994,VALID,31,VALID,0.040625,
2009-12-23, 00:21:05,VALID,1002.14,VALID,0,VALID,91.029,VALID,0,VALID,23.7207,VALID,31,VALID,0,
2009-12-23, 00:22:05,VALID,1002.14,VALID,0,VALID,91.0748,VALID,0,VALID,23.6799,VALID,31,VALID,0,
2009-12-23, 00:23:05,VALID,1002.12,VALID,0,VALID,91.0519,VALID,0,VALID,23.6604,VALID,31,VALID,0.311719,
2009-12-23, 00:24:05,VALID,1002.11,VALID,0,VALID,91.09,VALID,0,VALID,23.6817,VALID,31,VALID,0.355078,
2009-12-23, 00:25:05,VALID,1002.07,VALID,0,VALID,91.1968,VALID,0,VALID,23.6622,VALID,31,VALID,0.546094,
2009-12-23, 00:26:05,VALID,1002.06,VALID,0,VALID,91.2045,VALID,0,VALID,23.6604,VALID,12,VALID,0.704687,
2009-12-23, 00:27:05,VALID,1002.06,VALID,0,VALID,91.3037,VALID,0,VALID,23.6817,VALID,12,VALID,0.734375,
2009-12-23, 00:28:05,VALID,1002.05,VALID,0,VALID,91.4486,VALID,0,VALID,23.6622,VALID,9,VALID,0.803516,
2009-12-23, 00:29:05,VALID,1002.03,VALID,0,VALID,91.4715,VALID,0,VALID,23.6214,VALID,9,VALID,0.429688,
2009-12-23, 00:30:05,VALID,1001.99,VALID,0,VALID,91.38,VALID,0,VALID,23.6036,VALID,9,VALID,0.378125,
2009-12-23, 00:31:05,VALID,1001.94,VALID,0,VALID,91.5326,VALID,0,VALID,23.5841,VALID,9,VALID,0.487109,
2009-12-23, 00:32:05,VALID,1001.94,VALID,0,VALID,91.6012,VALID,0,VALID,23.5646,VALID,9,VALID,0.163672,
2009-12-23, 00:33:05,VALID,1001.95,VALID,0,VALID,91.586,VALID,0,VALID,23.5451,VALID,9,VALID,0,
2009-12-23, 00:34:05,VALID,1001.91,VALID,0,VALID,91.6241,VALID,0,VALID,23.4848,VALID,9,VALID,0,
2009-12-23, 00:35:05,VALID,1001.89,VALID,0,VALID,91.7843,VALID,0,VALID,23.4653,VALID,9,VALID,0,
2009-12-23, 00:36:05,VALID,1001.91,VALID,0,VALID,91.9217,VALID,0,VALID,23.4866,VALID,9,VALID,0,
2009-12-23, 00:37:05,VALID,1001.88,VALID,0,VALID,92.0437,VALID,0,VALID,23.4653,VALID,9,VALID,0,
2009-12-23, 00:38:05,VALID,1001.87,VALID,0,VALID,92.059,VALID,0,VALID,23.4866,VALID,9,VALID,0,
2009-12-23, 00:39:05,VALID,1001.88,VALID,0,VALID,92.0895,VALID,0,VALID,23.4848,VALID,9,VALID,0,
2009-12-23, 00:40:05,VALID,1001.86,VALID,0,VALID,92.1277,VALID,0,VALID,23.5256,VALID,9,VALID,0,
2009-12-23, 00:41:05,VALID,1001.89,VALID,0,VALID,92.0209,VALID,0,VALID,23.5043,VALID,9,VALID,0,
2009-12-23, 00:42:05,VALID,1001.87,VALID,0,VALID,91.9293,VALID,0,VALID,23.5646,VALID,9,VALID,0,
2009-12-23, 00:43:05,VALID,1001.9,VALID,0,VALID,91.8606,VALID,0,VALID,23.5628,VALID,9,VALID,0.25625,
2009-12-23, 00:44:05,VALID,1001.89,VALID,0,VALID,91.7538,VALID,0,VALID,23.5823,VALID,9,VALID,0.325,
2009-12-23, 00:45:05,VALID,1001.88,VALID,0,VALID,91.7462,VALID,0,VALID,23.6019,VALID,9,VALID,0.463281,
2009-12-23, 00:46:05,VALID,1001.84,VALID,0,VALID,91.6088,VALID,0,VALID,23.6036,VALID,9,VALID,0.046875,
2009-12-23, 00:47:05,VALID,1001.81,VALID,0,VALID,91.5097,VALID,0,VALID,23.6232,VALID,9,VALID,0.141797,
2009-12-23, 00:48:05,VALID,1001.81,VALID,0,VALID,91.4715,VALID,0,VALID,23.6232,VALID,9,VALID,0,
2009-12-23, 00:49:05,VALID,1001.82,VALID,0,VALID,91.4257,VALID,0,VALID,23.5823,VALID,9,VALID,0,
2009-12-23, 00:50:05,VALID,1001.76,VALID,0,VALID,91.4791,VALID,0,VALID,23.6036,VALID,9,VALID,0,
2009-12-23, 00:51:05,VALID,1001.76,VALID,0,VALID,91.4715,VALID,0,VALID,23.5646,VALID,9,VALID,0,
2009-12-23, 00:52:05,VALID,1001.73,VALID,0,VALID,91.6165,VALID,0,VALID,23.5433,VALID,9,VALID,0,
2009-12-23, 00:53:05,VALID,1001.75,VALID,0,VALID,91.3418,VALID,0,VALID,23.5451,VALID,9,VALID,0.385938,
2009-12-23, 00:54:05,VALID,1001.73,VALID,0,VALID,91.1129,VALID,0,VALID,23.5433,VALID,38,VALID,0.336328,
2009-12-23, 00:55:05,VALID,1001.71,VALID,0,VALID,90.9222,VALID,0,VALID,23.5841,VALID,38,VALID,0.0375,
2009-12-23, 00:56:05,VALID,1001.67,VALID,0,VALID,90.8077,VALID,0,VALID,23.5841,VALID,38,VALID,0,
2009-12-23, 00:57:05,VALID,1001.68,VALID,0,VALID,90.8001,VALID,0,VALID,23.6036,VALID,38,VALID,0.318359,
2009-12-23, 00:58:05,VALID,1001.64,VALID,0,VALID,90.9069,VALID,0,VALID,23.6232,VALID,50,VALID,0.580469,
2009-12-23, 00:59:05,VALID,1001.64,VALID,0,VALID,90.9909,VALID,0,VALID,23.6427,VALID,75,VALID,0.564062,
2009-12-23, 01:00:05,VALID,1001.63,VALID,0,VALID,90.9909,VALID,0,VALID,23.6622,VALID,76,VALID,0.249219,
2009-12-23, 01:01:05,VALID,1001.63,VALID,0,VALID,90.9985,VALID,0,VALID,23.6604,VALID,99,VALID,0.433984,
2009-12-23, 01:02:05,VALID,1001.65,VALID,0,VALID,90.968,VALID,0.112286,VALID,23.6409,VALID,103,VALID,0.274609,
2009-12-23, 01:03:05,VALID,1001.6,VALID,0,VALID,91.0214,VALID,0,VALID,23.6817,VALID,103,VALID,0.429688,
2009-12-23, 01:04:05,VALID,1001.64,VALID,0,VALID,91.029,VALID,0,VALID,23.6409,VALID,103,VALID,0.648047,
2009-12-23, 01:05:05,VALID,1001.58,VALID,0,VALID,90.9603,VALID,0,VALID,23.6409,VALID,103,VALID,0.657422,
2009-12-23, 01:06:05,VALID,1001.59,VALID,0,VALID,90.8993,VALID,0,VALID,23.6409,VALID,98,VALID,0.658203,
2009-12-23, 01:07:05,VALID,1001.58,VALID,0,VALID,90.7849,VALID,0,VALID,23.6622,VALID,98,VALID,0.448438,
2009-12-23, 01:08:05,VALID,1001.57,VALID,0,VALID,90.7238,VALID,0,VALID,23.6622,VALID,98,VALID,0.399609,
2009-12-23, 01:09:05,VALID,1001.58,VALID,0,VALID,90.5865,VALID,0,VALID,23.6232,VALID,91,VALID,0.629297,
2009-12-23, 01:10:05,VALID,1001.56,VALID,0,VALID,90.472,VALID,0,VALID,23.6019,VALID,81,VALID,0.85625,
2009-12-23, 01:11:05,VALID,1001.55,VALID,0,VALID,90.2966,VALID,0,VALID,23.6427,VALID,81,VALID,0.458984,
2009-12-23, 01:12:05,VALID,1001.52,VALID,0,VALID,90.2966,VALID,0,VALID,23.6214,VALID,81,VALID,0.458594,
2009-12-23, 01:13:05,VALID,1001.51,VALID,0,VALID,90.4797,VALID,0,VALID,23.6019,VALID,80,VALID,0.366797,
2009-12-23, 01:14:05,VALID,1001.49,VALID,0,VALID,90.8764,VALID,0,VALID,23.6019,VALID,49,VALID,0.660156,
2009-12-23, 01:15:05,VALID,1001.46,VALID,0,VALID,90.9985,VALID,0,VALID,23.5841,VALID,49,VALID,0.540234,
2009-12-23, 01:16:05,VALID,1001.43,VALID,0,VALID,91.2121,VALID,0,VALID,23.5433,VALID,49,VALID,0.40625,
2009-12-23, 01:17:05,VALID,1001.4,VALID,0,VALID,91.3037,VALID,0,VALID,23.5256,VALID,49,VALID,0.241797,
2009-12-23, 01:18:05,VALID,1001.39,VALID,0,VALID,91.4181,VALID,0,VALID,23.5061,VALID,49,VALID,0.211719,
2009-12-23, 01:19:05,VALID,1001.36,VALID,0,VALID,91.4868,VALID,0,VALID,23.4458,VALID,49,VALID,0.317578,
2009-12-23, 01:20:05,VALID,1001.35,VALID,0,VALID,91.6394,VALID,0,VALID,23.428,VALID,30,VALID,0.585156,
2009-12-23, 01:21:05,VALID,1001.33,VALID,0,VALID,91.8377,VALID,0,VALID,23.428,VALID,17,VALID,0.576172,
2009-12-23, 01:22:05,VALID,1001.27,VALID,0,VALID,91.8606,VALID,0,VALID,23.4085,VALID,7,VALID,0.821094,
2009-12-23, 01:23:05,VALID,1001.28,VALID,0,VALID,91.8911,VALID,0,VALID,23.389,VALID,6,VALID,0.95625,
2009-12-23, 01:24:05,VALID,1001.27,VALID,0,VALID,91.8835,VALID,0,VALID,23.389,VALID,5,VALID,1.07266,
2009-12-23, 01:25:05,VALID,1001.23,VALID,0,VALID,91.998,VALID,0,VALID,23.3677,VALID,2,VALID,0.758203,
2009-12-23, 01:26:05,VALID,1001.19,VALID,0,VALID,92.1658,VALID,0,VALID,23.4085,VALID,1,VALID,0.755469,
2009-12-23, 01:27:05,VALID,1001.19,VALID,0,VALID,92.265,VALID,0,VALID,23.3677,VALID,1,VALID,0.749609,
2009-12-23, 01:28:05,VALID,1001.18,VALID,0,VALID,92.3184,VALID,0,VALID,23.4085,VALID,1,VALID,0.478125,
2009-12-23, 01:29:05,VALID,1001.15,VALID,0,VALID,92.4176,VALID,0,VALID,23.4085,VALID,1,VALID,0.427734,
2009-12-23, 01:30:05,VALID,1001.13,VALID,0,VALID,92.4634,VALID,0,VALID,23.4067,VALID,359,VALID,0.39375,
2009-12-23, 01:31:05,VALID,1001.14,VALID,0,VALID,92.4786,VALID,0,VALID,23.428,VALID,359,VALID,0.271094,
2009-12-23, 01:32:05,VALID,1001.12,VALID,0,VALID,92.5168,VALID,0,VALID,23.4475,VALID,359,VALID,0.322266,
2009-12-23, 01:33:05,VALID,1001.1,VALID,0,VALID,92.5015,VALID,0,VALID,23.4475,VALID,359,VALID,0.271484,
2009-12-23, 01:34:05,VALID,1001.11,VALID,0,VALID,92.5091,VALID,0,VALID,23.428,VALID,359,VALID,0,
2009-12-23, 01:35:05,VALID,1001.09,VALID,0,VALID,92.5015,VALID,0,VALID,23.4263,VALID,359,VALID,0,
2009-12-23, 01:36:05,VALID,1001.09,VALID,0,VALID,92.532,VALID,0,VALID,23.4475,VALID,359,VALID,0,
2009-12-23, 01:37:05,VALID,1001.1,VALID,0,VALID,92.5549,VALID,0,VALID,23.4475,VALID,359,VALID,0,
2009-12-23, 01:38:05,VALID,1001.12,VALID,0,VALID,92.5244,VALID,0,VALID,23.4475,VALID,359,VALID,0,
2009-12-23, 01:39:05,VALID,1001.06,VALID,0,VALID,92.4481,VALID,0,VALID,23.4067,VALID,359,VALID,0,
2009-12-23, 01:40:05,VALID,1001.09,VALID,0,VALID,92.4252,VALID,0,VALID,23.4067,VALID,359,VALID,0,
2009-12-23, 01:41:05,VALID,1001.03,VALID,0,VALID,92.5168,VALID,0,VALID,23.4085,VALID,359,VALID,0,
2009-12-23, 01:42:05,VALID,1001.01,VALID,0,VALID,92.5854,VALID,0,VALID,23.4085,VALID,359,VALID,0,
2009-12-23, 01:43:05,VALID,1000.99,VALID,0,VALID,92.6465,VALID,0,VALID,23.4085,VALID,359,VALID,0,
2009-12-23, 01:44:05,VALID,1000.98,VALID,0,VALID,92.6388,VALID,0,VALID,23.4085,VALID,359,VALID,0,
2009-12-23, 01:45:05,VALID,1000.92,VALID,0,VALID,92.6312,VALID,0,VALID,23.4085,VALID,359,VALID,0,
2009-12-23, 01:46:05,VALID,1000.94,VALID,0,VALID,92.5702,VALID,0,VALID,23.3872,VALID,359,VALID,0,
2009-12-23, 01:47:05,VALID,1000.93,VALID,0,VALID,92.4557,VALID,0,VALID,23.4085,VALID,17,VALID,0,
2009-12-23, 01:48:04,VALID,1000.91,VALID,0,VALID,92.1811,VALID,0,VALID,23.389,VALID,158,VALID,0.685938,
2009-12-23, 01:49:04,VALID,1000.93,VALID,0,VALID,91.9445,VALID,0,VALID,23.428,VALID,158,VALID,0.271094,
2009-12-23, 01:50:04,VALID,1000.9,VALID,0,VALID,91.8072,VALID,0,VALID,23.4475,VALID,158,VALID,0,
2009-12-23, 01:51:04,VALID,1000.91,VALID,0,VALID,91.708,VALID,0,VALID,23.4475,VALID,158,VALID,0,
2009-12-23, 01:52:04,VALID,1000.91,VALID,0,VALID,91.6775,VALID,0,VALID,23.428,VALID,158,VALID,0,
2009-12-23, 01:53:04,VALID,1000.92,VALID,0,VALID,91.6851,VALID,0,VALID,23.428,VALID,155,VALID,0.139453,
2009-12-23, 01:54:04,VALID,1000.89,VALID,0,VALID,91.6546,VALID,0,VALID,23.428,VALID,149,VALID,0.311328,
2009-12-23, 01:55:04,VALID,1000.89,VALID,0,VALID,91.6623,VALID,0,VALID,23.4085,VALID,147,VALID,0.0183594,
2009-12-23, 01:56:04,VALID,1000.87,VALID,0,VALID,91.6394,VALID,0,VALID,23.4085,VALID,147,VALID,0,
2009-12-23, 01:57:04,VALID,1000.88,VALID,0,VALID,91.7385,VALID,0,VALID,23.4085,VALID,147,VALID,0,
2009-12-23, 01:58:04,VALID,1000.89,VALID,0,VALID,91.8606,VALID,0,VALID,23.389,VALID,147,VALID,0.433203,
2009-12-23, 01:59:04,VALID,1000.84,VALID,0,VALID,92.0285,VALID,0,VALID,23.389,VALID,147,VALID,0.215234,
2009-12-23, 02:00:04,VALID,1000.82,VALID,0,VALID,92.1353,VALID,0,VALID,23.35,VALID,147,VALID,0.245312,
2009-12-23, 02:01:04,VALID,1000.83,VALID,0,VALID,92.2497,VALID,0,VALID,23.35,VALID,147,VALID,0.182422,
2009-12-23, 02:02:04,VALID,1000.79,VALID,0,VALID,92.326,VALID,0,VALID,23.3287,VALID,147,VALID,0.186328,
2009-12-23, 02:03:04,VALID,1000.78,VALID,0,VALID,92.3566,VALID,0,VALID,23.35,VALID,147,VALID,0.2125,
2009-12-23, 02:04:04,VALID,1000.76,VALID,0,VALID,92.3947,VALID,0,VALID,23.35,VALID,147,VALID,0.158203,
2009-12-23, 02:05:04,VALID,1000.76,VALID,0,VALID,92.4252,VALID,0,VALID,23.3305,VALID,147,VALID,0,
2009-12-23, 02:06:04,VALID,1000.74,VALID,0,VALID,92.4328,VALID,0,VALID,23.3092,VALID,147,VALID,0,
2009-12-23, 02:07:04,VALID,1000.74,VALID,0,VALID,92.4023,VALID,0,VALID,23.3305,VALID,147,VALID,0,
2009-12-23, 02:08:04,VALID,1000.71,VALID,0,VALID,92.4023,VALID,0,VALID,23.2915,VALID,147,VALID,0,
2009-12-23, 02:09:04,VALID,1000.73,VALID,0,VALID,92.41,VALID,0,VALID,23.2915,VALID,147,VALID,0,
2009-12-23, 02:10:04,VALID,1000.73,VALID,0,VALID,92.4939,VALID,0,VALID,23.2915,VALID,147,VALID,0,
2009-12-23, 02:11:04,VALID,1000.71,VALID,0,VALID,92.5778,VALID,0,VALID,23.2507,VALID,147,VALID,0,
2009-12-23, 02:12:04,VALID,1000.72,VALID,0,VALID,92.616,VALID,0,VALID,23.2719,VALID,147,VALID,0,
2009-12-23, 02:13:04,VALID,1000.72,VALID,0,VALID,92.6999,VALID,0,VALID,23.2524,VALID,147,VALID,0,
2009-12-23, 02:14:04,VALID,1000.71,VALID,0,VALID,92.7228,VALID,0,VALID,23.2524,VALID,147,VALID,0,
2009-12-23, 02:15:04,VALID,1000.7,VALID,0,VALID,92.7609,VALID,0,VALID,23.2737,VALID,147,VALID,0,
2009-12-23, 02:16:04,VALID,1000.71,VALID,0,VALID,92.7533,VALID,0,VALID,23.2542,VALID,360,VALID,0.539453,
2009-12-23, 02:17:04,VALID,1000.72,VALID,0,VALID,92.7762,VALID,0,VALID,23.2329,VALID,349,VALID,0.383984,
2009-12-23, 02:18:04,VALID,1000.69,VALID,0,VALID,92.7533,VALID,0,VALID,23.2134,VALID,349,VALID,0,
2009-12-23, 02:19:04,VALID,1000.7,VALID,0,VALID,92.7457,VALID,0,VALID,23.2152,VALID,349,VALID,0,
2009-12-23, 02:20:04,VALID,1000.71,VALID,0,VALID,92.7457,VALID,0,VALID,23.1726,VALID,349,VALID,0,
2009-12-23, 02:21:04,VALID,1000.72,VALID,0,VALID,92.7304,VALID,0,VALID,23.1549,VALID,349,VALID,0,
2009-12-23, 02:22:04,VALID,1000.67,VALID,0,VALID,92.6083,VALID,0,VALID,23.0751,VALID,349,VALID,0,
2009-12-23, 02:23:04,VALID,1000.69,VALID,0,VALID,92.6007,VALID,0,VALID,23.0769,VALID,349,VALID,0,
2009-12-23, 02:24:04,VALID,1000.69,VALID,0,VALID,92.6541,VALID,0,VALID,23.0573,VALID,349,VALID,0,
2009-12-23, 02:25:04,VALID,1000.71,VALID,0,VALID,92.7609,VALID,0,VALID,23.0378,VALID,349,VALID,0,
2009-12-23, 02:26:04,VALID,1000.67,VALID,0,VALID,92.8448,VALID,0,VALID,23.0378,VALID,349,VALID,0,
2009-12-23, 02:27:04,VALID,1000.67,VALID,0,VALID,92.9517,VALID,0,VALID,23.0378,VALID,349,VALID,0,
2009-12-23, 02:28:04,VALID,1000.65,VALID,0,VALID,93.0051,VALID,0,VALID,23.0183,VALID,349,VALID,0,
2009-12-23, 02:29:04,VALID,1000.64,VALID,0,VALID,93.0356,VALID,0,VALID,22.9988,VALID,349,VALID,0,
2009-12-23, 02:30:04,VALID,1000.62,VALID,0,VALID,93.1119,VALID,0,VALID,23.0183,VALID,349,VALID,0,
2009-12-23, 02:31:04,VALID,1000.58,VALID,0,VALID,93.2187,VALID,0,VALID,23.0183,VALID,349,VALID,0,
2009-12-23, 02:32:04,VALID,1000.62,VALID,0,VALID,93.2416,VALID,0,VALID,23.0183,VALID,349,VALID,0,
2009-12-23, 02:33:04,VALID,1000.61,VALID,0,VALID,93.3026,VALID,0,VALID,23.0183,VALID,349,VALID,0,
2009-12-23, 02:34:04,VALID,1000.59,VALID,0,VALID,93.3179,VALID,0,VALID,22.9971,VALID,349,VALID,0,
2009-12-23, 02:35:04,VALID,1000.57,VALID,0,VALID,93.3789,VALID,0,VALID,23.0396,VALID,349,VALID,0,
2009-12-23, 02:36:04,VALID,1000.57,VALID,0,VALID,93.4247,VALID,0,VALID,23.0183,VALID,349,VALID,0,
2009-12-23, 02:37:04,VALID,1000.57,VALID,0,VALID,93.4323,VALID,0,VALID,23.0378,VALID,349,VALID,0,
2009-12-23, 02:38:04,VALID,1000.56,VALID,0,VALID,93.4476,VALID,0,VALID,23.0378,VALID,349,VALID,0,
2009-12-23, 02:39:04,VALID,1000.56,VALID,0,VALID,93.4552,VALID,0,VALID,23.0183,VALID,349,VALID,0,
2009-12-23, 02:40:04,VALID,1000.54,VALID,0,VALID,93.4705,VALID,0,VALID,23.0183,VALID,349,VALID,0,
2009-12-23, 02:41:04,VALID,1000.58,VALID,0,VALID,93.501,VALID,0,VALID,23.0183,VALID,349,VALID,0,
2009-12-23, 02:42:04,VALID,1000.53,VALID,0,VALID,93.5315,VALID,0,VALID,23.0183,VALID,349,VALID,0,
2009-12-23, 02:43:04,VALID,1000.53,VALID,0,VALID,93.5544,VALID,0,VALID,23.0378,VALID,349,VALID,0,
2009-12-23, 02:44:04,VALID,1000.54,VALID,0,VALID,93.5773,VALID,0,VALID,23.0183,VALID,349,VALID,0,
2009-12-23, 02:45:04,VALID,1000.51,VALID,0,VALID,93.5926,VALID,0,VALID,23.0378,VALID,349,VALID,0,
2009-12-23, 02:46:04,VALID,1000.53,VALID,0,VALID,93.6078,VALID,0,VALID,23.0183,VALID,349,VALID,0,
2009-12-23, 02:47:04,VALID,1000.51,VALID,0,VALID,93.6154,VALID,0,VALID,22.9988,VALID,349,VALID,0,
2009-12-23, 02:48:04,VALID,1000.49,VALID,0,VALID,93.5849,VALID,0,VALID,22.9988,VALID,349,VALID,0,
2009-12-23, 02:49:04,VALID,1000.49,VALID,0,VALID,93.6154,VALID,0,VALID,22.9988,VALID,349,VALID,0,
2009-12-23, 02:50:04,VALID,1000.46,VALID,0,VALID,93.6231,VALID,0,VALID,22.9988,VALID,349,VALID,0,
2009-12-23, 02:51:04,VALID,1000.45,VALID,0,VALID,93.6383,VALID,0,VALID,23.0183,VALID,349,VALID,0,
2009-12-23, 02:52:04,VALID,1000.44,VALID,0,VALID,93.6612,VALID,0,VALID,23.0591,VALID,349,VALID,0,
2009-12-23, 02:53:04,VALID,1000.44,VALID,0,VALID,93.6612,VALID,0,VALID,23.0378,VALID,349,VALID,0,
2009-12-23, 02:54:04,VALID,1000.44,VALID,0,VALID,93.6765,VALID,0,VALID,23.0378,VALID,349,VALID,0,
2009-12-23, 02:55:04,VALID,1000.44,VALID,0,VALID,93.6688,VALID,0,VALID,23.0378,VALID,349,VALID,0,
2009-12-23, 02:56:04,VALID,1000.44,VALID,0,VALID,93.6841,VALID,0,VALID,23.0378,VALID,349,VALID,0,
2009-12-23, 02:57:04,VALID,1000.42,VALID,0,VALID,93.6231,VALID,0,VALID,23.0183,VALID,349,VALID,0,
2009-12-23, 02:58:04,VALID,1000.43,VALID,0,VALID,93.6078,VALID,0,VALID,22.9776,VALID,349,VALID,0,
2009-12-23, 02:59:04,VALID,1000.43,VALID,0,VALID,93.5773,VALID,0,VALID,22.9793,VALID,349,VALID,0,
2009-12-23, 03:00:04,VALID,1000.39,VALID,0,VALID,93.5773,VALID,0,VALID,22.9403,VALID,349,VALID,0,
2009-12-23, 03:01:04,VALID,1000.39,VALID,0,VALID,93.5926,VALID,0,VALID,22.9208,VALID,349,VALID,0,
2009-12-23, 03:02:04,VALID,1000.39,VALID,0,VALID,93.6002,VALID,0,VALID,22.9403,VALID,349,VALID,0,
2009-12-23, 03:03:04,VALID,1000.41,VALID,0,VALID,93.6154,VALID,0,VALID,22.9013,VALID,349,VALID,0,
2009-12-23, 03:04:04,VALID,1000.41,VALID,0,VALID,93.6612,VALID,0,VALID,22.9403,VALID,349,VALID,0.633203,
2009-12-23, 03:05:04,VALID,1000.39,VALID,0,VALID,93.7146,VALID,0,VALID,22.9598,VALID,349,VALID,0.707031,
2009-12-23, 03:06:04,VALID,1000.4,VALID,0,VALID,93.6688,VALID,0,VALID,22.9598,VALID,349,VALID,0.263672,
2009-12-23, 03:07:04,VALID,1000.43,VALID,0,VALID,93.7223,VALID,0,VALID,22.9598,VALID,349,VALID,0.449219,
2009-12-23, 03:08:04,VALID,1000.42,VALID,0,VALID,93.7375,VALID,0,VALID,22.9793,VALID,349,VALID,0.178516,
2009-12-23, 03:09:04,VALID,1000.44,VALID,0,VALID,93.7451,VALID,0,VALID,22.9598,VALID,349,VALID,0.430469,
2009-12-23, 03:10:04,VALID,1000.41,VALID,0,VALID,93.7146,VALID,0,VALID,22.9793,VALID,11,VALID,0.349609,
2009-12-23, 03:11:04,VALID,1000.37,VALID,0,VALID,93.7299,VALID,0,VALID,22.9988,VALID,10,VALID,0.0195313,
2009-12-23, 03:12:04,VALID,1000.4,VALID,0,VALID,93.6917,VALID,0,VALID,22.9793,VALID,10,VALID,0,
2009-12-23, 03:13:04,VALID,1000.38,VALID,0,VALID,93.6231,VALID,0,VALID,22.9793,VALID,10,VALID,0,
2009-12-23, 03:14:04,VALID,1000.4,VALID,0,VALID,93.6154,VALID,0,VALID,22.9793,VALID,10,VALID,0,
2009-12-23, 03:15:04,VALID,1000.39,VALID,0,VALID,93.562,VALID,0,VALID,22.9598,VALID,10,VALID,0,
2009-12-23, 03:16:04,VALID,1000.38,VALID,0,VALID,93.5391,VALID,0,VALID,22.9403,VALID,10,VALID,0,
2009-12-23, 03:17:04,VALID,1000.38,VALID,0,VALID,93.4934,VALID,0,VALID,22.9208,VALID,10,VALID,0,
2009-12-23, 03:18:04,VALID,1000.35,VALID,0,VALID,93.501,VALID,0,VALID,22.8995,VALID,66,VALID,0.173828,
2009-12-23, 03:19:04,VALID,1000.38,VALID,0,VALID,93.4323,VALID,0,VALID,22.9208,VALID,74,VALID,0,
2009-12-23, 03:20:04,VALID,1000.38,VALID,0,VALID,93.4094,VALID,0,VALID,22.9208,VALID,74,VALID,0,
2009-12-23, 03:21:04,VALID,1000.38,VALID,0,VALID,93.3942,VALID,0,VALID,22.8995,VALID,74,VALID,0,
2009-12-23, 03:22:04,VALID,1000.36,VALID,0,VALID,93.356,VALID,0,VALID,22.9208,VALID,74,VALID,0,
2009-12-23, 03:23:04,VALID,1000.38,VALID,0,VALID,93.3179,VALID,0,VALID,22.9013,VALID,74,VALID,0,
2009-12-23, 03:24:04,VALID,1000.39,VALID,0,VALID,93.2645,VALID,0,VALID,22.9013,VALID,74,VALID,0,
2009-12-23, 03:25:04,VALID,1000.39,VALID,0,VALID,93.2263,VALID,0,VALID,22.8818,VALID,74,VALID,0,
2009-12-23, 03:26:04,VALID,1000.39,VALID,0,VALID,93.2187,VALID,0,VALID,22.88,VALID,74,VALID,0,
2009-12-23, 03:27:04,VALID,1000.44,VALID,0,VALID,93.234,VALID,0,VALID,22.9013,VALID,74,VALID,0,
2009-12-23, 03:28:04,VALID,1000.44,VALID,0,VALID,93.2416,VALID,0,VALID,22.9013,VALID,74,VALID,0,
2009-12-23, 03:29:04,VALID,1000.44,VALID,0,VALID,93.2797,VALID,0,VALID,22.9013,VALID,73,VALID,0.554688,
2009-12-23, 03:30:04,VALID,1000.46,VALID,0,VALID,93.234,VALID,0,VALID,22.9208,VALID,71,VALID,0.815625,
2009-12-23, 03:31:04,VALID,1000.48,VALID,0,VALID,93.2263,VALID,0,VALID,22.9403,VALID,71,VALID,0.792969,
2009-12-23, 03:32:04,VALID,1000.46,VALID,0,VALID,93.1729,VALID,0,VALID,22.9793,VALID,72,VALID,0.844141,
2009-12-23, 03:33:04,VALID,1000.45,VALID,0,VALID,93.1424,VALID,0,VALID,22.9988,VALID,77,VALID,0.903516,
2009-12-23, 03:34:04,VALID,1000.48,VALID,0,VALID,92.9898,VALID,0,VALID,23.0378,VALID,88,VALID,1.03359,
2009-12-23, 03:35:04,VALID,1000.45,VALID,0,VALID,92.883,VALID,0,VALID,23.0964,VALID,99,VALID,1.02148,
2009-12-23, 03:36:04,VALID,1000.45,VALID,0,VALID,92.738,VALID,0,VALID,23.1354,VALID,100,VALID,0.955469,
2009-12-23, 03:37:04,VALID,1000.43,VALID,0,VALID,92.5702,VALID,0,VALID,23.1744,VALID,101,VALID,0.651172,
2009-12-23, 03:38:04,VALID,1000.48,VALID,0,VALID,92.3947,VALID,0,VALID,23.2134,VALID,101,VALID,0.860937,
2009-12-23, 03:39:04,VALID,1000.45,VALID,0,VALID,92.2116,VALID,0,VALID,23.2524,VALID,100,VALID,0.739062,
2009-12-23, 03:40:04,VALID,1000.47,VALID,0,VALID,92.0743,VALID,0,VALID,23.2915,VALID,100,VALID,0.561328,
2009-12-23, 03:41:04,VALID,1000.49,VALID,0,VALID,91.8835,VALID,0,VALID,23.2719,VALID,92,VALID,0.607813,
2009-12-23, 03:42:04,VALID,1000.47,VALID,0,VALID,91.8072,VALID,0,VALID,23.2524,VALID,68,VALID,0.771484,
2009-12-23, 03:43:04,VALID,1000.48,VALID,0,VALID,91.7309,VALID,0,VALID,23.2524,VALID,55,VALID,0.885938,
2009-12-23, 03:44:04,VALID,1000.48,VALID,0,VALID,91.8377,VALID,0,VALID,23.2524,VALID,51,VALID,0.826953,
2009-12-23, 03:45:04,VALID,1000.47,VALID,0,VALID,91.8683,VALID,0,VALID,23.2329,VALID,49,VALID,0.746484,
2009-12-23, 03:46:04,VALID,1000.44,VALID,0,VALID,91.8301,VALID,0,VALID,23.2134,VALID,49,VALID,0.551562,
2009-12-23, 03:47:04,VALID,1000.44,VALID,0,VALID,91.9445,VALID,0,VALID,23.1939,VALID,49,VALID,0.544141,
2009-12-23, 03:48:04,VALID,1000.45,VALID,0,VALID,92.1506,VALID,0,VALID,23.1744,VALID,49,VALID,0.536328,
2009-12-23, 03:49:04,VALID,1000.47,VALID,0,VALID,92.2955,VALID,0,VALID,23.1549,VALID,49,VALID,0.375,
2009-12-23, 03:50:04,VALID,1000.47,VALID,0,VALID,92.4328,VALID,0,VALID,23.1354,VALID,49,VALID,0.441406,
2009-12-23, 03:51:04,VALID,1000.45,VALID,0,VALID,92.4939,VALID,0,VALID,23.1354,VALID,49,VALID,0.246094,
2009-12-23, 03:52:04,VALID,1000.45,VALID,0,VALID,92.5397,VALID,0,VALID,23.1159,VALID,49,VALID,0,
2009-12-23, 03:53:04,VALID,1000.44,VALID,0,VALID,92.5626,VALID,0,VALID,23.0964,VALID,49,VALID,0,
2009-12-23, 03:54:04,VALID,1000.43,VALID,0,VALID,92.5626,VALID,0,VALID,23.0769,VALID,49,VALID,0,